ICEYE-X65

导读

ICEYE-X65是芬兰冰眼(ICEYE)公司推出的合成孔径雷达卫星,属于其SAR卫星星座,原定于2025年11月2日发射,发射国家暂未公布。该卫星依托小型化SAR技术,具备全天时全天候成像能力,可提供高分辨率遥感数据,服务灾害监测、海事管控、资源调查等领域,将进一步扩充ICEYE全球观测能力,为政府及商业客户提供近实时精准地理空间信息支持。

基本信息
目录编号:
66300
目录名称:
ICEYE-X65
国际标识:
2025-248H
轨道中心:
EARTH
卫星名称:
ICEYE-X65
卫星全名:
ICEYE-X65
卫星状态:
在轨 (已飞行313 天)
发射日期:
2025-11-02 UTC
国别 :
(AE)
星等 :
--
该卫星已列入 空间交会检测服务 Space Conjunction Data Service (SCDS) ,当前飞行风险评估等级: 无高风险
轨道信息
数据来源 国际轨道数据
星历时间: 2026-09-09T17:56:51+0800
1天前
查看轨道信息
半长轴: 6919.962km
偏心率: 0.0004567
轨道倾角: 45.406°
近地点辐角 150.281°
升交点赤经 51.194°
平近点角 209.833°
近地点: 538.664km
远地点: 544.986km
周期: 95.481分钟
每日圈数: 15.081594
详细信息
使用方式:
暂无
2D轨道图
3D轨道图
轨道高度分析图
轨道倾角分析图
轨道综合分析图
查看轨道综合分析图
交会数据列表
事件ID 空间交会对象 最接近时刻(TCA) 交会距离 交会风险概率(CRP) 交会风险指数(CRI) 操作
CDM_260907-174005-355606-630022
2026-09-07T
17:40:20+0000
1.381 km
极远距离
5.996203E-6 低风险 0.51
与全量物体交会距离演化趋势
与全量物体交会风险概率演化趋势